{"data":{"norad_id":69590,"intl_designator":"2026-139B","name":"SPACEMOBILE-009","alt_names":[],"object_type":"PAYLOAD","status":"ACTIVE","operator":null,"country":"US","launch_date":"2026-06-17","launch_site_code":"AFETR","launch_vehicle":null,"mission":null,"orbit_class":"UNKNOWN","rcs_meters":null,"size_class":null,"mass_kg":null,"dimensions":null,"purposes":[],"wikipedia_slug":null,"has_3d_model":false,"image_url":null,"decayed_at":null,"tle_current":{"epoch":"2026-09-19T22:44:18.466080Z","epoch_age_seconds":76843,"freshness":"FRESH","line1":"1 69590U 26139B   26262.94743595  .00001430  00000+0  97180-4 0  9990","line2":"2 69590  52.9943 192.3576 0002715 241.1599 118.9120 15.12884185 14327","mean_motion":15.12884185,"eccentricity":0.0002715,"inclination_deg":52.9943,"raan_deg":192.3576,"arg_perigee_deg":241.1599,"mean_anomaly_deg":118.912,"bstar":9.718e-5,"rev_number":1432,"period_min":95.182434602554,"perigee_km":525.53462245202,"apogee_km":529.28433418975,"semimajor_km":6905.5464783209,"source":"CELESTRAK","updated_at":"2026-09-20T09:00:24.997575Z"}}}